Regional Weather Roundup
Issued by NWS

Home | Current Version | Previous Version | Graphics & Text | Print | Product List | Glossary On
Versions: 1 2 3 4 5 6 7 8 9 10 11 12 13 14 15 16 17 18 19 20 21 22 23 24 25 26 27 28 29 30 31 32 33 34 35 36 37 38 39 40 41 42 43 44 45 46 47 48 49 50
000
ASUS43 KIND 240809
RWRIN

WEATHER ROUNDUP FOR INDIANA
NATIONAL WEATHER SERVICE INDIANAPOLIS IN
400 AM EDT MON JUL 24 2017

NOTE: "FAIR" INDICATES FEW OR NO CLOUDS BELOW 12,000 FEET WITH NO
SIGNIFICANT WEATHER AND/OR OBSTRUCTIONS TO VISIBILITY.

* - STATION DOES NOT REPORT WEATHER SUCH AS PRECIPITATION OR FOG.

+ - STATION NOT QUALITY CONTROLLED BY THE NATIONAL WEATHER SERVICE.
    USE DATA WITH CAUTION...ESPECIALLY DEWPOINT AND RELATIVE
    HUMIDITY OBSERVATIONS.

INZ001>003-010>013-019-020-240900-
NORTHWEST INDIANA

CITY           SKY/WX    TMP DP  RH WIND       PRES   REMARKS
GARY /AIRPORT/ CLOUDY    71  63  76 N10G18    29.92R
KNOX *+        CLOUDY    66  64  94 N8        29.88R
LA PORTE +     CLEAR     67  64  90 N10G17    29.90R
MICHIGAN CITY+ CLOUDY    68  64  88 N13       29.91R
MONTICELLO +   PTCLDY    66  65  95 NW3       29.87R
RENSSELAER +   CLEAR     68  64  88 N5        29.89R
VALPARAISO     MOCLDY    70  66  87 N10       29.90R

$$

LMZ046-743>745-240900-
SOUTHERN LAKE MICHIGAN

STATION/POSITION TIME  TEMP    WIND        PRES    WAVE
                       AIR SEA DIR/SP/G            HT
                 (UTC) (F)     (DEG/KT/KT) (MB)    (FT)
BURNS HARBOR     0740   70      10/ 15/ 20 1012.9S
MICHIGAN CITY    0740   69     360/ 18/ 19   N/A
5NW MICH CITY    0800   70 75   10/ 16/ 19   N/A     4

$$

INZ004-005-014>016-021>024-240900-
NORTH CENTRAL INDIANA

CITY           SKY/WX    TMP DP  RH WIND       PRES   REMARKS
GOSHEN         MOCLDY    68  63  84 N8        29.86S
LOGANSPORT +   PTCLDY    64  63  94 NW5       29.87R
PERU/GRISSOM   PTCLDY    67  65  94 NW5       29.85R
ROCHESTER +    MOCLDY    68  68 100 NW3       29.87R
SOUTH BEND     MOCLDY    66  65  96 NW7       29.89R
WARSAW +       MOCLDY    68  64  88 NW7       29.87R

$$

INZ006>009-017-018-025>027-240900-
NORTHEAST INDIANA

CITY           SKY/WX    TMP DP  RH WIND       PRES   REMARKS
AUBURN +       MOCLDY    70  63  78 N7        29.85S
FORT WAYNE     PTCLDY    68  62  81 NW5       29.85R
HUNTINGTON +   CLEAR     65  64  96 CALM      29.85R
KENDALLVILLE + MOCLDY    67  65  96 N5        29.86S

$$

INZ028-029-035-036-043>045-051>053-240900-
WEST CENTRAL INDIANA

CITY           SKY/WX    TMP DP  RH WIND       PRES   REMARKS
GREENCASTLE +  PTCLDY    68  64  88 N6        29.88F
LAFAYETTE      CLEAR     67  65  93 NW5       29.87R
TERRE HAUTE    CLEAR     67  65  93 CALM      29.87S

$$

INZ030>032-037>040-046>048-054>057-064-065-240900-
CENTRAL INDIANA

CITY           SKY/WX    TMP DP  RH WIND       PRES   REMARKS
CP ATTERBURY + CLEAR     68  66  94 CALM      29.87S
FRANKFORT +    PTCLDY    67  65  94 NW3       29.89S
GREENWOOD *+   CLEAR    N/A N/A N/A W5        29.87S
INDIANAPOLIS   CLEAR     69  67  93 W7        29.86S
-EAGLE CREEK   CLEAR     71  65  81 MISG      29.86S
KOKOMO +         N/A     66  63  90 MISG        N/A
MARION +       MOCLDY    64  63  94 NW5       29.87
MT COMFORT *+  CLEAR     68  66  94 W7        29.86S
SHELBYVILLE    CLEAR     72  68  87 W7        29.85S
ZIONSVILLE +   CLEAR     66  64  94 W5        29.88R

$$

INZ033-034-041-042-049-050-058-059-240900-
EAST CENTRAL INDIANA

CITY           SKY/WX    TMP DP  RH WIND       PRES   REMARKS
MUNCIE         CLEAR     71  68  90 NW6       29.85R
RICHMOND +     PTCLDY    68  68 100 W6        29.86S

$$

INZ060-061-067>069-081>083-085>088-240900-
SOUTHWEST INDIANA

CITY           SKY/WX    TMP DP  RH WIND       PRES   REMARKS
EVANSVILLE     PTCLDY    73  69  87 CALM      29.88S
HUNTINGBURG *+ CLEAR     70  69  97 SE3       29.89S

$$

INZ062-063-066-070>080-084-089>092-240900-
SOUTH CENTRAL AND SOUTHEAST INDIANA

CITY           SKY/WX    TMP DP  RH WIND       PRES   REMARKS
BEDFORD +      PTCLDY    68  66  94 CALM      29.88R
BLOOMINGTON    CLEAR     68  66  93 SW5       29.88R
MADISON *+     CLEAR     68  68 100 CALM      29.89F
NORTH VERNON + CLEAR     66  66 100 CALM      29.88S
SEYMOUR +      CLEAR    N/A N/A N/A CALM      29.86

$$




USA.gov is the U.S. government's official web portal to all federal, state and local government web resources and services.